Regional Weather Roundup
Issued by NWS

Home | Current Version | Previous Version | Graphics & Text | Print | Product List | Glossary Off
Versions: 1 2 3 4 5 6 7 8 9 10 11 12 13 14 15 16 17 18 19 20 21 22 23 24 25 26 27 28 29 30 31 32 33 34 35 36 37 38 39 40 41 42 43 44 45 46 47 48 49 50

584
ASUS43 KTOP 160759
RWRKS

WEATHER ROUNDUP FOR KANSAS
NATIONAL WEATHER SERVICE GOODLAND KS
200 AM CST SAT DEC 16 2017

NOTE:  "FAIR" INDICATES FEW OR NO CLOUDS BELOW 12,000 FEET WITH NO
SIGNIFICANT WEATHER AND/OR OBSTRUCTIONS TO VISIBILITY.

KSZ001>006-013>018-027>032-041>047-160900-
NORTHWEST KANSAS

CITY           SKY/WX    TMP DP  RH WIND       PRES   REMARKS
GOODLAND       CLOUDY    42  11  28 SW12      29.76F
HAYS           CLOUDY    35  18  49 SW9       29.81F
HILL CITY      CLOUDY    34  13  41 W7        29.77F
RUSSELL        CLOUDY    33  20  58 S13       29.79F WCI  24
$$

KSZ061>065-074>080-084>089-160900-
SOUTHWEST KANSAS

CITY           SKY/WX    TMP DP  RH WIND       PRES   REMARKS
DODGE CITY     CLOUDY    36  17  46 SW14      29.84F WCI  27
GARDEN CITY    CLOUDY    31  15  52 SW9       29.81F
GREAT BEND     CLOUDY    33  20  58 S10       29.84F WCI  25
LIBERAL        CLOUDY    29  19  66 SW10      29.87F WCI  20
$$

KSZ066>073-081>083-090>101-160900-
SOUTHEAST KANSAS

CITY           SKY/WX    TMP DP  RH WIND       PRES   REMARKS
CHANUTE        CLEAR     37  23  56 S15       29.97F WCI  28
COFFEYVILLE    CLEAR     37  24  59 S13       30.02F WCI  29
HUTCHINSON     CLOUDY    32  23  69 S8        29.87F
MEDICINE LODGE   N/A     34  23  64 SE8       29.90F
NEWTON         CLEAR     38  23  55 SW15      29.90F WCI  29
PARSONS        CLEAR     38  24  57 S8        30.01S
WICHITA INTL   CLEAR     38  25  59 S13       29.91F WCI  30
WICHITA JABRA  CLEAR     39  25  57 S17G25    29.91F WCI  30
WICHITA MCCONL CLEAR     37  23  55 SW15      29.91F WCI  28
WINFIELD       CLEAR     40  25  55 S13       29.97F WCI  32
$$

KSZ007>012-019>026-033>040-048>060-102>105-160900-
NORTHEAST KANSAS

CITY           SKY/WX    TMP DP  RH WIND       PRES   REMARKS
CONCORDIA      CLOUDY    40  22  48 SW15      29.78F WCI  32
EMPORIA        CLEAR     41  24  51 S18       29.89F
LAWRENCE       CLEAR     40  25  55 S9        29.90F
MANHATTAN      CLEAR     41  24  51 SW14      29.84F
OLATHE IND     CLEAR     40  24  53 S17       29.91F WCI  31
OLATHE EXE     CLEAR     36  24  62 S14       29.91F WCI  27
SALINA         CLEAR     40  24  53 S8        29.84F
TOPEKA BILLARD CLEAR    N/A N/A N/A S6        29.88S
TOPEKA FORBES  CLEAR     37  26  64 S14       29.87S WCI  28
$$




USA.gov is the U.S. government's official web portal to all federal, state and local government web resources and services.